{"data":{"norad_id":67767,"intl_designator":"2026-030D","name":"KUIPER-00178","alt_names":[],"object_type":"PAYLOAD","status":"ACTIVE","operator":null,"country":"US","launch_date":"2026-02-12","launch_site_code":"FRGUI","launch_vehicle":null,"mission":null,"orbit_class":"UNKNOWN","rcs_meters":null,"size_class":null,"mass_kg":null,"dimensions":null,"purposes":[],"wikipedia_slug":null,"has_3d_model":false,"image_url":null,"decayed_at":null,"tle_current":{"epoch":"2026-09-20T21:08:05.829792Z","epoch_age_seconds":56403,"freshness":"FRESH","line1":"1 67767U 26030D   26263.88062303  .00000127  00000+0  45639-4 0  9993","line2":"2 67767  51.9003  69.9732 0000671  85.0673 275.0366 14.79931375 34085","mean_motion":14.79931375,"eccentricity":6.71e-5,"inclination_deg":51.9003,"raan_deg":69.9732,"arg_perigee_deg":85.0673,"mean_anomaly_deg":275.0366,"bstar":4.5639e-5,"rev_number":3408,"period_min":97.301809011246,"perigee_km":629.07054372439,"apogee_km":630.01097407963,"semimajor_km":7007.677758902,"source":"CELESTRAK","updated_at":"2026-09-21T09:00:16.827747Z"}}}